Time,TemperatureF,DewpointF,PressureIn,WindDirection,WindDirectionDegrees,WindSpeedMPH,WindSpeedGustMPH,Humidity,HourlyPrecipIn,Conditions,Clouds,dailyrainin,SoftwareType,DateUTC
2013-03-26 00:00:00,36.0,28.2,29.67,SE,136,6.0,7.0,73,0.00,,,0.00,Wunderground v.1.15,2013-03-26 04:00:00,
2013-03-26 00:05:00,35.9,28.1,29.67,ESE,111,6.0,7.0,73,0.00,,,0.00,Wunderground v.1.15,2013-03-26 04:05:00,
2013-03-26 00:09:00,35.8,28.0,29.67,SE,132,7.0,7.0,73,0.00,,,0.00,Wunderground v.1.15,2013-03-26 04:09:00,
2013-03-26 00:14:00,35.7,27.9,29.67,SE,134,7.0,7.0,73,0.00,,,0.00,Wunderground v.1.15,2013-03-26 04:14:00,
2013-03-26 00:19:00,35.6,27.8,29.68,SE,124,6.0,6.0,73,0.00,,,0.00,Wunderground v.1.15,2013-03-26 04:19:00,
2013-03-26 00:24:00,35.5,28.0,29.67,SE,128,5.0,6.0,74,0.00,,,0.00,Wunderground v.1.15,2013-03-26 04:24:00,
2013-03-26 00:29:00,35.3,27.8,29.68,SE,131,4.0,7.0,74,0.00,,,0.00,Wunderground v.1.15,2013-03-26 04:29:00,
2013-03-26 00:34:00,35.2,28.1,29.68,SE,131,5.0,12.0,75,0.00,,,0.00,Wunderground v.1.15,2013-03-26 04:34:00,
2013-03-26 00:44:00,35.0,27.9,29.68,East,87,4.0,12.0,75,0.00,,,0.00,Wunderground v.1.15,2013-03-26 04:44:00,
2013-03-26 00:49:00,35.0,27.9,29.68,SE,137,4.0,12.0,75,0.00,,,0.00,Wunderground v.1.15,2013-03-26 04:49:00,
2013-03-26 00:54:00,34.9,27.8,29.68,SE,131,4.0,12.0,75,0.00,,,0.00,Wunderground v.1.15,2013-03-26 04:54:00,
2013-03-26 01:00:00,34.8,27.7,29.68,SE,132,3.0,4.0,75,0.00,,,0.00,Wunderground v.1.15,2013-03-26 05:00:00,
2013-03-26 01:09:00,34.7,27.6,29.68,SE,131,5.0,5.0,75,0.00,,,0.00,Wunderground v.1.15,2013-03-26 05:09:00,
2013-03-26 01:19:00,34.5,27.4,29.68,SE,126,4.0,4.0,75,0.00,,,0.00,Wunderground v.1.15,2013-03-26 05:19:00,
2013-03-26 01:24:00,34.4,27.3,29.68,ESE,116,4.0,4.0,75,0.00,,,0.00,Wunderground v.1.15,2013-03-26 05:24:00,
2013-03-26 01:29:00,34.4,27.3,29.68,SE,127,5.0,7.0,75,0.00,,,0.00,Wunderground v.1.15,2013-03-26 05:29:00,
2013-03-26 01:34:00,34.4,27.3,29.68,SE,132,6.0,10.0,75,0.00,,,0.00,Wunderground v.1.15,2013-03-26 05:34:00,
2013-03-26 01:39:00,34.3,27.2,29.69,SE,130,5.0,10.0,75,0.00,,,0.00,Wunderground v.1.15,2013-03-26 05:39:00,
2013-03-26 01:49:00,34.3,27.2,29.69,ESE,109,5.0,10.0,75,0.00,,,0.00,Wunderground v.1.15,2013-03-26 05:49:00,
2013-03-26 01:54:00,34.2,27.1,29.69,SE,129,4.0,10.0,75,0.00,,,0.00,Wunderground v.1.15,2013-03-26 05:54:00,
2013-03-26 02:00:00,34.2,26.8,29.69,ESE,113,5.0,9.0,74,0.00,,,0.00,Wunderground v.1.15,2013-03-26 06:00:00,
2013-03-26 02:09:00,34.1,27.0,29.69,ESE,105,4.0,4.0,75,0.00,,,0.00,Wunderground v.1.15,2013-03-26 06:09:00,
2013-03-26 02:14:00,34.0,26.6,29.70,SE,134,3.0,4.0,74,0.00,,,0.00,Wunderground v.1.15,2013-03-26 06:14:00,
2013-03-26 02:24:00,33.9,26.8,29.70,ESE,115,4.0,5.0,75,0.00,,,0.00,Wunderground v.1.15,2013-03-26 06:24:00,
2013-03-26 02:29:00,33.8,26.7,29.70,ESE,123,5.0,5.0,75,0.00,,,0.00,Wunderground v.1.15,2013-03-26 06:29:00,
2013-03-26 02:34:00,33.8,26.7,29.70,SE,132,5.0,12.0,75,0.00,,,0.00,Wunderground v.1.15,2013-03-26 06:34:00,
2013-03-26 02:39:00,33.7,26.6,29.70,SE,139,4.0,4.0,75,0.00,,,0.00,Wunderground v.1.15,2013-03-26 06:39:00,
2013-03-26 02:44:00,33.7,26.6,29.70,SE,134,3.0,12.0,75,0.00,,,0.00,Wunderground v.1.15,2013-03-26 06:44:00,
2013-03-26 02:54:00,33.6,26.5,29.70,SE,126,3.0,12.0,75,0.00,,,0.00,Wunderground v.1.15,2013-03-26 06:54:00,
2013-03-26 03:00:00,33.5,26.4,29.70,SE,127,3.0,4.0,75,0.00,,,0.00,Wunderground v.1.15,2013-03-26 07:00:00,
2013-03-26 03:09:00,33.4,26.3,29.70,SE,130,3.0,3.0,75,0.00,,,0.00,Wunderground v.1.15,2013-03-26 07:09:00,
2013-03-26 03:14:00,33.4,26.6,29.70,ESE,112,2.0,3.0,76,0.00,,,0.00,Wunderground v.1.15,2013-03-26 07:14:00,
2013-03-26 03:19:00,33.4,26.6,29.70,SE,134,3.0,3.0,76,0.00,,,0.00,Wunderground v.1.15,2013-03-26 07:19:00,
2013-03-26 03:29:00,33.3,26.5,29.70,East,90,2.0,2.0,76,0.00,,,0.00,Wunderground v.1.15,2013-03-26 07:29:00,
2013-03-26 03:34:00,33.3,26.5,29.70,East,82,2.0,3.0,76,0.00,,,0.00,Wunderground v.1.15,2013-03-26 07:34:00,
2013-03-26 03:39:00,33.3,26.5,29.70,ESE,109,2.0,8.0,76,0.00,,,0.00,Wunderground v.1.15,2013-03-26 07:39:00,
2013-03-26 03:44:00,33.3,26.5,29.70,ESE,119,2.0,8.0,76,0.00,,,0.00,Wunderground v.1.15,2013-03-26 07:44:00,
2013-03-26 03:49:00,33.3,26.5,29.70,ESE,114,2.0,8.0,76,0.00,,,0.00,Wunderground v.1.15,2013-03-26 07:49:00,
2013-03-26 03:59:00,33.2,26.8,29.71,SE,130,4.0,7.0,77,0.00,,,0.00,Wunderground v.1.15,2013-03-26 07:59:00,
2013-03-26 04:09:00,32.7,27.2,29.71,SE,131,5.0,5.0,80,0.00,,,0.00,Wunderground v.1.15,2013-03-26 08:09:00,
2013-03-26 04:14:00,32.3,27.7,29.71,SE,134,4.0,5.0,83,0.00,,,0.00,Wunderground v.1.15,2013-03-26 08:14:00,
2013-03-26 04:19:00,31.9,27.6,29.71,SE,134,3.0,3.0,84,0.00,,,0.00,Wunderground v.1.15,2013-03-26 08:19:00,
2013-03-26 04:24:00,31.8,27.5,29.71,SE,134,1.0,3.0,84,0.00,,,0.00,Wunderground v.1.15,2013-03-26 08:24:00,
2013-03-26 04:29:00,31.7,27.7,29.71,SE,134,0.0,0.0,85,0.00,,,0.00,Wunderground v.1.15,2013-03-26 08:29:00,
2013-03-26 04:34:00,31.7,27.7,29.71,SE,134,0.0,11.0,85,0.00,,,0.00,Wunderground v.1.15,2013-03-26 08:34:00,
2013-03-26 04:39:00,31.8,27.8,29.71,SE,134,1.0,11.0,85,0.00,,,0.00,Wunderground v.1.15,2013-03-26 08:39:00,
2013-03-26 04:44:00,31.9,27.6,29.71,ENE,71,2.0,11.0,84,0.00,,,0.00,Wunderground v.1.15,2013-03-26 08:44:00,
2013-03-26 04:49:00,31.9,27.6,29.71,East,82,2.0,11.0,84,0.00,,,0.00,Wunderground v.1.15,2013-03-26 08:49:00,
2013-03-26 04:54:00,32.0,27.4,29.71,East,82,2.0,11.0,83,0.00,,,0.00,Wunderground v.1.15,2013-03-26 08:54:00,
2013-03-26 05:00:00,32.1,27.2,29.72,ENE,74,2.0,2.0,82,0.00,,,0.00,Wunderground v.1.15,2013-03-26 09:00:00,
2013-03-26 05:09:00,32.2,27.3,29.72,ENE,67,2.0,2.0,82,0.00,,,0.00,Wunderground v.1.15,2013-03-26 09:09:00,
2013-03-26 05:14:00,32.3,27.1,29.72,ENE,67,2.0,3.0,81,0.00,,,0.00,Wunderground v.1.15,2013-03-26 09:14:00,
2013-03-26 05:19:00,32.3,27.1,29.72,ENE,69,3.0,3.0,81,0.00,,,0.00,Wunderground v.1.15,2013-03-26 09:19:00,
2013-03-26 05:24:00,32.3,26.8,29.72,East,81,3.0,3.0,80,0.00,,,0.00,Wunderground v.1.15,2013-03-26 09:24:00,
2013-03-26 05:29:00,32.4,26.9,29.72,ENE,77,2.0,3.0,80,0.00,,,0.00,Wunderground v.1.15,2013-03-26 09:29:00,
2013-03-26 05:39:00,32.4,26.6,29.72,East,93,2.0,2.0,79,0.00,,,0.00,Wunderground v.1.15,2013-03-26 09:39:00,
2013-03-26 05:44:00,32.4,26.6,29.72,East,93,2.0,5.0,79,0.00,,,0.00,Wunderground v.1.15,2013-03-26 09:44:00,
2013-03-26 05:49:00,32.5,26.7,29.72,East,93,1.0,5.0,79,0.00,,,0.00,Wunderground v.1.15,2013-03-26 09:49:00,
2013-03-26 05:54:00,32.5,26.4,29.73,ESE,108,2.0,5.0,78,0.00,,,0.00,Wunderground v.1.15,2013-03-26 09:54:00,
2013-03-26 06:00:00,32.5,26.4,29.73,East,84,2.0,2.0,78,0.00,,,0.00,Wunderground v.1.15,2013-03-26 10:00:00,
2013-03-26 06:09:00,32.5,26.1,29.73,East,100,3.0,3.0,77,0.00,,,0.00,Wunderground v.1.15,2013-03-26 10:09:00,
2013-03-26 06:14:00,32.4,26.3,29.73,ENE,76,3.0,3.0,78,0.00,,,0.00,Wunderground v.1.15,2013-03-26 10:14:00,
2013-03-26 06:19:00,32.4,26.3,29.73,East,98,3.0,3.0,78,0.00,,,0.00,Wunderground v.1.15,2013-03-26 10:19:00,
2013-03-26 06:24:00,32.3,26.2,29.73,East,96,3.0,3.0,78,0.00,,,0.00,Wunderground v.1.15,2013-03-26 10:24:00,
2013-03-26 06:29:00,32.2,25.8,29.73,East,93,3.0,3.0,77,0.00,,,0.00,Wunderground v.1.15,2013-03-26 10:29:00,
2013-03-26 06:34:00,32.1,26.0,29.74,East,93,2.0,6.0,78,0.00,,,0.00,Wunderground v.1.15,2013-03-26 10:34:00,
2013-03-26 06:44:00,31.8,25.7,29.74,ENE,62,2.0,6.0,78,0.00,,,0.00,Wunderground v.1.15,2013-03-26 10:44:00,
2013-03-26 06:49:00,31.7,25.6,29.74,ENE,63,2.0,6.0,78,0.00,,,0.00,Wunderground v.1.15,2013-03-26 10:49:00,
2013-03-26 06:54:00,31.6,25.8,29.74,ENE,64,2.0,6.0,79,0.00,,,0.00,Wunderground v.1.15,2013-03-26 10:54:00,
2013-03-26 06:59:00,31.4,25.6,29.74,ENE,64,2.0,2.0,79,0.00,,,0.00,Wunderground v.1.15,2013-03-26 10:59:00,
2013-03-26 07:09:00,31.2,25.7,29.75,ENE,65,2.0,2.0,80,0.00,,,0.00,Wunderground v.1.15,2013-03-26 11:09:00,
2013-03-26 07:14:00,31.1,25.7,29.75,ENE,63,2.0,3.0,80,0.00,,,0.00,Wunderground v.1.15,2013-03-26 11:14:00,
2013-03-26 07:19:00,31.1,26.0,29.75,ENE,63,2.0,2.0,81,0.00,,,0.00,Wunderground v.1.15,2013-03-26 11:19:00,
2013-03-26 07:24:00,31.1,26.0,29.75,ENE,63,2.0,2.0,81,0.00,,,0.00,Wunderground v.1.15,2013-03-26 11:24:00,
2013-03-26 07:29:00,31.1,26.0,29.75,ENE,63,2.0,2.0,81,0.00,,,0.00,Wunderground v.1.15,2013-03-26 11:29:00,
2013-03-26 07:34:00,31.1,26.0,29.76,ENE,63,2.0,7.0,81,0.00,,,0.00,Wunderground v.1.15,2013-03-26 11:34:00,
2013-03-26 07:39:00,31.2,26.0,29.76,ENE,63,1.0,7.0,81,0.00,,,0.00,Wunderground v.1.15,2013-03-26 11:39:00,
2013-03-26 07:49:00,31.4,26.2,29.76,ENE,63,1.0,7.0,81,0.00,,,0.00,Wunderground v.1.15,2013-03-26 11:49:00,
2013-03-26 07:54:00,31.4,26.2,29.76,ENE,63,1.0,7.0,81,0.00,,,0.00,Wunderground v.1.15,2013-03-26 11:54:00,
2013-03-26 07:59:00,31.5,26.6,29.76,ENE,63,1.0,1.0,82,0.00,,,0.00,Wunderground v.1.15,2013-03-26 11:59:00,
2013-03-26 08:09:00,31.8,26.9,29.76,ENE,63,2.0,2.0,82,0.00,,,0.00,Wunderground v.1.15,2013-03-26 12:09:00,
2013-03-26 08:19:00,32.2,26.7,29.76,NE,54,2.0,4.0,80,0.00,,,0.00,Wunderground v.1.15,2013-03-26 12:19:00,
2013-03-26 08:24:00,32.5,27.0,29.76,NE,52,3.0,4.0,80,0.00,,,0.00,Wunderground v.1.15,2013-03-26 12:24:00,
2013-03-26 08:29:00,32.7,27.2,29.76,ENE,70,3.0,4.0,80,0.00,,,0.00,Wunderground v.1.15,2013-03-26 12:29:00,
2013-03-26 08:34:00,32.9,27.1,29.76,East,82,3.0,4.0,79,0.00,,,0.00,Wunderground v.1.15,2013-03-26 12:34:00,
2013-03-26 08:39:00,33.0,26.9,29.77,ENE,68,3.0,4.0,78,0.00,,,0.00,Wunderground v.1.15,2013-03-26 12:39:00,
2013-03-26 08:44:00,33.3,27.2,29.77,ENE,59,3.0,4.0,78,0.00,,,0.00,Wunderground v.1.15,2013-03-26 12:44:00,
2013-03-26 08:49:00,33.5,27.1,29.77,ENE,60,2.0,3.0,77,0.00,,,0.00,Wunderground v.1.15,2013-03-26 12:49:00,
2013-03-26 08:54:00,33.9,27.4,29.77,ENE,61,1.0,3.0,77,0.00,,,0.00,Wunderground v.1.15,2013-03-26 12:54:00,
2013-03-26 09:00:00,34.3,26.9,29.77,SE,128,2.0,2.0,74,0.00,,,0.00,Wunderground v.1.15,2013-03-26 13:00:00,
2013-03-26 09:09:00,35.0,27.2,29.77,ESE,102,3.0,3.0,73,0.00,,,0.00,Wunderground v.1.15,2013-03-26 13:09:00,
2013-03-26 09:14:00,35.1,27.0,29.77,ESE,121,2.0,3.0,72,0.00,,,0.00,Wunderground v.1.15,2013-03-26 13:14:00,
2013-03-26 09:19:00,35.5,26.7,29.77,ESE,119,3.0,3.0,70,0.00,,,0.00,Wunderground v.1.15,2013-03-26 13:19:00,
2013-03-26 09:24:00,35.6,26.8,29.77,ESE,113,2.0,3.0,70,0.00,,,0.00,Wunderground v.1.15,2013-03-26 13:24:00,
2013-03-26 09:29:00,35.8,27.3,29.77,ESE,118,2.0,2.0,71,0.00,,,0.00,Wunderground v.1.15,2013-03-26 13:29:00,
2013-03-26 09:34:00,36.2,27.4,29.77,East,101,1.0,7.0,70,0.00,,,0.00,Wunderground v.1.15,2013-03-26 13:34:00,
2013-03-26 09:39:00,36.5,27.3,29.77,SE,128,2.0,7.0,69,0.00,,,0.00,Wunderground v.1.15,2013-03-26 13:39:00,
2013-03-26 09:44:00,36.8,26.5,29.77,ENE,78,3.0,7.0,66,0.00,,,0.00,Wunderground v.1.15,2013-03-26 13:44:00,
2013-03-26 09:54:00,37.3,27.0,29.77,ENE,75,3.0,7.0,66,0.00,,,0.00,Wunderground v.1.15,2013-03-26 13:54:00,
2013-03-26 10:00:00,37.0,26.3,29.77,ESE,113,4.0,4.0,65,0.00,,,0.00,Wunderground v.1.15,2013-03-26 14:00:00,
2013-03-26 10:09:00,37.7,26.6,29.78,SE,131,2.0,5.0,64,0.00,,,0.00,Wunderground v.1.15,2013-03-26 14:09:00,
2013-03-26 10:14:00,37.9,26.8,29.78,SE,128,2.0,5.0,64,0.00,,,0.00,Wunderground v.1.15,2013-03-26 14:14:00,
2013-03-26 10:19:00,38.0,26.1,29.78,ESE,122,2.0,3.0,62,0.00,,,0.00,Wunderground v.1.15,2013-03-26 14:19:00,
2013-03-26 10:29:00,38.4,26.1,29.78,SE,124,3.0,3.0,61,0.00,,,0.00,Wunderground v.1.15,2013-03-26 14:29:00,
2013-03-26 10:34:00,38.5,26.2,29.78,East,86,3.0,7.0,61,0.00,,,0.00,Wunderground v.1.15,2013-03-26 14:34:00,
2013-03-26 10:39:00,38.6,25.9,29.78,SE,132,2.0,7.0,60,0.00,,,0.00,Wunderground v.1.15,2013-03-26 14:39:00,
2013-03-26 10:44:00,38.9,26.6,29.78,SSE,167,2.0,7.0,61,0.00,,,0.00,Wunderground v.1.15,2013-03-26 14:44:00,
2013-03-26 10:49:00,39.4,26.7,29.78,ESE,109,2.0,7.0,60,0.00,,,0.00,Wunderground v.1.15,2013-03-26 14:49:00,
2013-03-26 11:00:00,39.4,27.5,29.78,East,86,3.0,5.0,62,0.00,,,0.00,Wunderground v.1.15,2013-03-26 15:00:00,
2013-03-26 11:09:00,39.1,26.8,29.78,NE,51,3.0,7.0,61,0.00,,,0.00,Wunderground v.1.15,2013-03-26 15:09:00,
2013-03-26 11:14:00,38.6,25.9,29.78,NE,34,4.0,7.0,60,0.00,,,0.00,Wunderground v.1.15,2013-03-26 15:14:00,
2013-03-26 11:19:00,38.3,26.0,29.79,NE,49,4.0,6.0,61,0.00,,,0.00,Wunderground v.1.15,2013-03-26 15:19:00,
2013-03-26 11:24:00,38.3,25.6,29.79,East,88,4.0,6.0,60,0.00,,,0.00,Wunderground v.1.15,2013-03-26 15:24:00,
2013-03-26 11:34:00,38.7,25.6,29.79,NE,38,3.0,5.0,59,0.00,,,0.00,Wunderground v.1.15,2013-03-26 15:34:00,
2013-03-26 11:39:00,39.2,25.2,29.79,ENE,66,3.0,3.0,57,0.00,,,0.00,Wunderground v.1.15,2013-03-26 15:39:00,
2013-03-26 11:44:00,39.5,25.9,29.79,NE,54,4.0,5.0,58,0.00,,,0.00,Wunderground v.1.15,2013-03-26 15:44:00,
2013-03-26 11:49:00,39.8,26.6,29.79,ENE,57,4.0,8.0,59,0.00,,,0.00,Wunderground v.1.15,2013-03-26 15:49:00,
2013-03-26 11:54:00,40.0,25.6,29.79,NE,53,5.0,8.0,56,0.00,,,0.00,Wunderground v.1.15,2013-03-26 15:54:00,
2013-03-26 11:59:00,40.0,25.1,29.79,NNE,18,5.0,5.0,55,0.00,,,0.00,Wunderground v.1.15,2013-03-26 15:59:00,
2013-03-26 12:09:00,40.2,24.9,29.79,NE,49,6.0,6.0,54,0.00,,,0.00,Wunderground v.1.15,2013-03-26 16:09:00,
2013-03-26 12:14:00,40.4,25.5,29.79,East,83,7.0,7.0,55,0.00,,,0.00,Wunderground v.1.15,2013-03-26 16:14:00,
2013-03-26 12:19:00,40.5,26.0,29.79,ENE,78,5.0,7.0,56,0.00,,,0.00,Wunderground v.1.15,2013-03-26 16:19:00,
2013-03-26 12:24:00,40.7,25.8,29.79,NE,47,6.0,8.0,55,0.00,,,0.00,Wunderground v.1.15,2013-03-26 16:24:00,
2013-03-26 12:29:00,40.6,25.2,29.79,ENE,78,6.0,6.0,54,0.00,,,0.00,Wunderground v.1.15,2013-03-26 16:29:00,
2013-03-26 12:39:00,40.5,25.1,29.78,NNE,24,4.0,4.0,54,0.00,,,0.00,Wunderground v.1.15,2013-03-26 16:39:00,
2013-03-26 12:44:00,40.9,26.8,29.79,NNE,26,5.0,5.0,57,0.00,,,0.00,Wunderground v.1.15,2013-03-26 16:44:00,
2013-03-26 12:49:00,41.4,26.0,29.79,NE,52,4.0,12.0,54,0.00,,,0.00,Wunderground v.1.15,2013-03-26 16:49:00,
2013-03-26 12:54:00,41.1,24.3,29.78,North,5,4.0,12.0,51,0.00,,,0.00,Wunderground v.1.15,2013-03-26 16:54:00,
2013-03-26 12:59:00,41.1,26.1,29.78,ENE,57,5.0,5.0,55,0.00,,,0.00,Wunderground v.1.15,2013-03-26 16:59:00,
2013-03-26 13:09:00,41.1,24.3,29.79,NE,45,6.0,7.0,51,0.00,,,0.00,Wunderground v.1.15,2013-03-26 17:09:00,
2013-03-26 13:14:00,41.0,25.2,29.79,NNE,32,5.0,7.0,53,0.00,,,0.00,Wunderground v.1.15,2013-03-26 17:14:00,
2013-03-26 13:19:00,41.4,27.7,29.79,ENE,78,5.0,7.0,58,0.00,,,0.00,Wunderground v.1.15,2013-03-26 17:19:00,
2013-03-26 13:24:00,41.4,25.1,29.79,East,95,5.0,7.0,52,0.00,,,0.00,Wunderground v.1.15,2013-03-26 17:24:00,
2013-03-26 13:29:00,41.5,26.1,29.79,ENE,76,5.0,7.0,54,0.00,,,0.00,Wunderground v.1.15,2013-03-26 17:29:00,
2013-03-26 13:34:00,41.4,25.1,29.79,ENE,74,6.0,10.0,52,0.00,,,0.00,Wunderground v.1.15,2013-03-26 17:34:00,
2013-03-26 13:44:00,41.9,26.9,29.79,NNE,25,3.0,10.0,55,0.00,,,0.00,Wunderground v.1.15,2013-03-26 17:44:00,
2013-03-26 13:49:00,42.2,26.3,29.79,NNE,28,4.0,4.0,53,0.00,,,0.00,Wunderground v.1.15,2013-03-26 17:49:00,
2013-03-26 13:54:00,42.5,26.1,29.79,NE,50,3.0,6.0,52,0.00,,,0.00,Wunderground v.1.15,2013-03-26 17:54:00,
2013-03-26 13:59:00,42.2,26.3,29.78,NNE,17,3.0,5.0,53,0.00,,,0.00,Wunderground v.1.15,2013-03-26 17:59:00,
2013-03-26 14:09:00,42.4,25.5,29.78,ESE,121,3.0,3.0,51,0.00,,,0.00,Wunderground v.1.15,2013-03-26 18:09:00,
2013-03-26 14:14:00,42.4,27.4,29.78,NNE,31,2.0,4.0,55,0.00,,,0.00,Wunderground v.1.15,2013-03-26 18:14:00,
2013-03-26 14:19:00,42.3,26.4,29.78,SE,142,4.0,4.0,53,0.00,,,0.00,Wunderground v.1.15,2013-03-26 18:19:00,
2013-03-26 14:24:00,42.6,27.1,29.78,ENE,59,4.0,4.0,54,0.00,,,0.00,Wunderground v.1.15,2013-03-26 18:24:00,
2013-03-26 14:29:00,43.3,28.2,29.78,NE,41,3.0,4.0,55,0.00,,,0.00,Wunderground v.1.15,2013-03-26 18:29:00,
2013-03-26 14:34:00,43.3,27.8,29.79,NE,49,4.0,7.0,54,0.00,,,0.00,Wunderground v.1.15,2013-03-26 18:34:00,
2013-03-26 14:39:00,42.7,25.3,29.79,ESE,112,5.0,5.0,50,0.00,,,0.00,Wunderground v.1.15,2013-03-26 18:39:00,
2013-03-26 14:49:00,43.3,28.6,29.78,NE,38,3.0,13.0,56,0.00,,,0.00,Wunderground v.1.15,2013-03-26 18:49:00,
2013-03-26 14:54:00,43.4,27.4,29.78,NE,49,4.0,13.0,53,0.00,,,0.00,Wunderground v.1.15,2013-03-26 18:54:00,
2013-03-26 14:59:00,43.1,26.2,29.78,ESE,110,5.0,5.0,51,0.00,,,0.00,Wunderground v.1.15,2013-03-26 18:59:00,
2013-03-26 15:09:00,43.3,26.4,29.78,ENE,78,3.0,3.0,51,0.00,,,0.00,Wunderground v.1.15,2013-03-26 19:09:00,
2013-03-26 15:14:00,43.1,28.0,29.78,NE,44,5.0,8.0,55,0.00,,,0.00,Wunderground v.1.15,2013-03-26 19:14:00,
2013-03-26 15:19:00,42.9,26.9,29.78,ENE,58,5.0,5.0,53,0.00,,,0.00,Wunderground v.1.15,2013-03-26 19:19:00,
2013-03-26 15:29:00,43.6,28.0,29.78,NE,40,5.0,5.0,54,0.00,,,0.00,Wunderground v.1.15,2013-03-26 19:29:00,
2013-03-26 15:34:00,43.6,27.1,29.78,NNE,32,5.0,6.0,52,0.00,,,0.00,Wunderground v.1.15,2013-03-26 19:34:00,
2013-03-26 15:39:00,43.6,27.6,29.78,NNE,28,6.0,12.0,53,0.00,,,0.00,Wunderground v.1.15,2013-03-26 19:39:00,
2013-03-26 15:44:00,43.5,26.6,29.78,NE,47,6.0,12.0,51,0.00,,,0.00,Wunderground v.1.15,2013-03-26 19:44:00,
2013-03-26 15:49:00,43.6,27.6,29.78,NE,39,6.0,6.0,53,0.00,,,0.00,Wunderground v.1.15,2013-03-26 19:49:00,
2013-03-26 15:55:00,43.5,27.5,29.78,NE,43,5.0,7.0,53,0.00,,,0.00,Wunderground v.1.15,2013-03-26 19:55:00,
2013-03-26 16:04:00,43.4,26.0,29.78,East,101,5.0,6.0,50,0.00,,,0.00,Wunderground v.1.15,2013-03-26 20:04:00,
2013-03-26 16:09:00,43.6,27.1,29.78,NE,47,4.0,5.0,52,0.00,,,0.00,Wunderground v.1.15,2013-03-26 20:09:00,
2013-03-26 16:14:00,43.6,26.6,29.78,NE,49,5.0,5.0,51,0.00,,,0.00,Wunderground v.1.15,2013-03-26 20:14:00,
2013-03-26 16:24:00,43.4,26.5,29.78,East,79,4.0,6.0,51,0.00,,,0.00,Wunderground v.1.15,2013-03-26 20:24:00,
2013-03-26 16:29:00,43.5,26.1,29.78,ENE,78,4.0,4.0,50,0.00,,,0.00,Wunderground v.1.15,2013-03-26 20:29:00,
2013-03-26 16:34:00,43.8,27.3,29.78,NE,35,4.0,5.0,52,0.00,,,0.00,Wunderground v.1.15,2013-03-26 20:34:00,
2013-03-26 16:39:00,43.6,27.1,29.78,NNE,27,4.0,13.0,52,0.00,,,0.00,Wunderground v.1.15,2013-03-26 20:39:00,
2013-03-26 16:44:00,43.7,26.7,29.78,NE,49,5.0,13.0,51,0.00,,,0.00,Wunderground v.1.15,2013-03-26 20:44:00,
2013-03-26 16:49:00,43.8,26.3,29.78,East,90,5.0,13.0,50,0.00,,,0.00,Wunderground v.1.15,2013-03-26 20:49:00,
2013-03-26 16:59:00,44.3,27.3,29.78,NNW,340,5.0,5.0,51,0.00,,,0.00,Wunderground v.1.15,2013-03-26 20:59:00,
2013-03-26 17:09:00,44.2,26.2,29.77,NE,34,4.0,4.0,49,0.00,,,0.00,Wunderground v.1.15,2013-03-26 21:09:00,
2013-03-26 17:14:00,44.4,26.9,29.77,NE,38,4.0,6.0,50,0.00,,,0.00,Wunderground v.1.15,2013-03-26 21:14:00,
2013-03-26 17:19:00,44.3,27.3,29.77,North,355,4.0,4.0,51,0.00,,,0.00,Wunderground v.1.15,2013-03-26 21:19:00,
2013-03-26 17:29:00,44.4,26.4,29.77,NNW,339,4.0,6.0,49,0.00,,,0.00,Wunderground v.1.15,2013-03-26 21:29:00,
2013-03-26 17:34:00,44.7,26.2,29.77,NNW,342,4.0,10.0,48,0.00,,,0.00,Wunderground v.1.15,2013-03-26 21:34:00,
2013-03-26 17:39:00,44.4,26.4,29.77,NE,45,4.0,4.0,49,0.00,,,0.00,Wunderground v.1.15,2013-03-26 21:39:00,
2013-03-26 17:44:00,44.7,26.7,29.77,NNE,30,3.0,10.0,49,0.00,,,0.00,Wunderground v.1.15,2013-03-26 21:44:00,
2013-03-26 17:49:00,44.4,26.4,29.77,NE,34,3.0,3.0,49,0.00,,,0.00,Wunderground v.1.15,2013-03-26 21:49:00,
2013-03-26 17:54:00,44.3,28.2,29.77,NNE,22,3.0,10.0,53,0.00,,,0.00,Wunderground v.1.15,2013-03-26 21:54:00,
2013-03-26 18:00:00,44.7,28.6,29.77,North,360,2.0,3.0,53,0.00,,,0.00,Wunderground v.1.15,2013-03-26 22:00:00,
2013-03-26 18:09:00,44.4,26.9,29.77,NNE,31,3.0,3.0,50,0.00,,,0.00,Wunderground v.1.15,2013-03-26 22:09:00,
2013-03-26 18:14:00,44.3,26.8,29.78,NNE,30,3.0,3.0,50,0.00,,,0.00,Wunderground v.1.15,2013-03-26 22:14:00,
2013-03-26 18:24:00,44.5,28.0,29.78,North,11,2.0,3.0,52,0.00,,,0.00,Wunderground v.1.15,2013-03-26 22:24:00,
2013-03-26 18:29:00,44.4,27.9,29.78,NNE,12,1.0,1.0,52,0.00,,,0.00,Wunderground v.1.15,2013-03-26 22:29:00,
2013-03-26 18:34:00,44.3,26.8,29.78,NNW,342,1.0,3.0,50,0.00,,,0.00,Wunderground v.1.15,2013-03-26 22:34:00,
2013-03-26 18:39:00,44.3,27.8,29.77,NNE,15,2.0,2.0,52,0.00,,,0.00,Wunderground v.1.15,2013-03-26 22:39:00,
2013-03-26 18:44:00,44.2,27.2,29.78,NNE,15,2.0,7.0,51,0.00,,,0.00,Wunderground v.1.15,2013-03-26 22:44:00,
2013-03-26 18:49:00,43.9,26.9,29.78,NNE,15,1.0,7.0,51,0.00,,,0.00,Wunderground v.1.15,2013-03-26 22:49:00,
2013-03-26 18:54:00,43.5,27.0,29.78,NNE,15,1.0,7.0,52,0.00,,,0.00,Wunderground v.1.15,2013-03-26 22:54:00,
2013-03-26 19:00:00,43.2,26.7,29.78,NNE,15,1.0,1.0,52,0.00,,,0.00,Wunderground v.1.15,2013-03-26 23:00:00,
2013-03-26 19:09:00,42.6,26.2,29.78,NNE,15,0.0,0.0,52,0.00,,,0.00,Wunderground v.1.15,2013-03-26 23:09:00,
2013-03-26 19:14:00,42.4,26.0,29.78,NNE,15,0.0,0.0,52,0.00,,,0.00,Wunderground v.1.15,2013-03-26 23:14:00,
2013-03-26 19:19:00,42.1,25.7,29.78,NNE,15,0.0,0.0,52,0.00,,,0.00,Wunderground v.1.15,2013-03-26 23:19:00,
2013-03-26 19:24:00,41.8,25.4,29.78,NNE,15,0.0,0.0,52,0.00,,,0.00,Wunderground v.1.15,2013-03-26 23:24:00,
2013-03-26 19:29:00,41.6,25.3,29.78,NNE,15,0.0,0.0,52,0.00,,,0.00,Wunderground v.1.15,2013-03-26 23:29:00,
2013-03-26 19:39:00,41.1,25.3,29.78,NNE,15,0.0,5.0,53,0.00,,,0.00,Wunderground v.1.15,2013-03-26 23:39:00,
2013-03-26 19:44:00,40.9,25.1,29.78,NNE,15,0.0,5.0,53,0.00,,,0.00,Wunderground v.1.15,2013-03-26 23:44:00,
2013-03-26 19:49:00,40.7,25.3,29.78,NNE,15,0.0,5.0,54,0.00,,,0.00,Wunderground v.1.15,2013-03-26 23:49:00,
2013-03-26 19:54:00,40.4,25.1,29.78,NNE,15,0.0,5.0,54,0.00,,,0.00,Wunderground v.1.15,2013-03-26 23:54:00,
2013-03-26 20:00:00,40.2,24.9,29.78,NNE,15,0.0,0.0,54,0.00,,,0.00,Wunderground v.1.15,2013-03-27 00:00:00,
2013-03-26 20:09:00,39.9,24.6,29.79,NNE,15,0.0,0.0,54,0.00,,,0.00,Wunderground v.1.15,2013-03-27 00:09:00,
2013-03-26 20:14:00,39.7,25.3,29.79,NNE,15,0.0,0.0,56,0.00,,,0.00,Wunderground v.1.15,2013-03-27 00:14:00,
2013-03-26 20:19:00,39.4,25.0,29.79,NNE,15,0.0,0.0,56,0.00,,,0.00,Wunderground v.1.15,2013-03-27 00:19:00,
2013-03-26 20:24:00,39.1,25.1,29.79,NNE,15,0.0,0.0,57,0.00,,,0.00,Wunderground v.1.15,2013-03-27 00:24:00,
2013-03-26 20:29:00,39.0,25.0,29.79,NNE,15,0.0,0.0,57,0.00,,,0.00,Wunderground v.1.15,2013-03-27 00:29:00,
2013-03-26 20:34:00,38.8,24.9,29.79,NNE,15,0.0,0.0,57,0.00,,,0.00,Wunderground v.1.15,2013-03-27 00:34:00,
2013-03-26 20:44:00,38.2,25.1,29.79,NNE,15,0.0,0.0,59,0.00,,,0.00,Wunderground v.1.15,2013-03-27 00:44:00,
2013-03-26 20:49:00,37.9,25.2,29.79,NNE,15,0.0,0.0,60,0.00,,,0.00,Wunderground v.1.15,2013-03-27 00:49:00,
2013-03-26 20:54:00,37.7,25.1,29.79,NNE,15,0.0,0.0,60,0.00,,,0.00,Wunderground v.1.15,2013-03-27 00:54:00,
2013-03-26 21:00:00,37.5,24.9,29.79,NNE,15,0.0,0.0,60,0.00,,,0.00,Wunderground v.1.15,2013-03-27 01:00:00,
2013-03-26 21:09:00,37.4,24.8,29.80,NNE,15,0.0,0.0,60,0.00,,,0.00,Wunderground v.1.15,2013-03-27 01:09:00,
2013-03-26 21:14:00,37.3,24.7,29.80,NNE,15,0.0,0.0,60,0.00,,,0.00,Wunderground v.1.15,2013-03-27 01:14:00,
2013-03-26 21:19:00,37.2,24.6,29.80,NNE,15,0.0,0.0,60,0.00,,,0.00,Wunderground v.1.15,2013-03-27 01:19:00,
2013-03-26 21:24:00,37.2,25.0,29.80,NNE,15,0.0,0.0,61,0.00,,,0.00,Wunderground v.1.15,2013-03-27 01:24:00,
2013-03-26 21:29:00,37.2,25.4,29.80,NNE,15,0.0,0.0,62,0.00,,,0.00,Wunderground v.1.15,2013-03-27 01:29:00,
2013-03-26 21:34:00,37.2,25.8,29.80,NNE,15,0.0,1.0,63,0.00,,,0.00,Wunderground v.1.15,2013-03-27 01:34:00,
2013-03-26 21:39:00,37.0,25.6,29.80,NNE,15,0.0,1.0,63,0.00,,,0.00,Wunderground v.1.15,2013-03-27 01:39:00,
2013-03-26 21:49:00,36.6,25.9,29.80,NNE,15,0.0,1.0,65,0.00,,,0.00,Wunderground v.1.15,2013-03-27 01:49:00,
2013-03-26 21:54:00,36.5,25.8,29.80,NNE,15,0.0,1.0,65,0.00,,,0.00,Wunderground v.1.15,2013-03-27 01:54:00,
2013-03-26 21:59:00,36.3,25.7,29.80,NNE,15,0.0,0.0,65,0.00,,,0.00,Wunderground v.1.15,2013-03-27 01:59:00,
2013-03-26 22:09:00,36.4,26.1,29.80,NNE,15,0.0,0.0,66,0.00,,,0.00,Wunderground v.1.15,2013-03-27 02:09:00,
2013-03-26 22:19:00,36.3,26.4,29.80,NNE,15,0.0,0.0,67,0.00,,,0.00,Wunderground v.1.15,2013-03-27 02:19:00,
2013-03-26 22:24:00,36.2,26.3,29.80,NNE,15,0.0,0.0,67,0.00,,,0.00,Wunderground v.1.15,2013-03-27 02:24:00,
2013-03-26 22:29:00,36.1,26.2,29.80,NNE,15,0.0,0.0,67,0.00,,,0.00,Wunderground v.1.15,2013-03-27 02:29:00,
2013-03-26 22:34:00,36.1,26.6,29.80,NNE,15,0.0,0.0,68,0.00,,,0.00,Wunderground v.1.15,2013-03-27 02:34:00,
2013-03-26 22:39:00,36.1,26.6,29.79,NNE,15,0.0,0.0,68,0.00,,,0.00,Wunderground v.1.15,2013-03-27 02:39:00,
2013-03-26 22:44:00,36.1,26.9,29.80,NNE,15,0.0,0.0,69,0.00,,,0.00,Wunderground v.1.15,2013-03-27 02:44:00,
2013-03-26 22:54:00,36.0,27.2,29.79,NNE,15,0.0,1.0,70,0.00,,,0.00,Wunderground v.1.15,2013-03-27 02:54:00,
2013-03-26 22:59:00,36.0,27.5,29.79,NNE,15,0.0,0.0,71,0.00,,,0.00,Wunderground v.1.15,2013-03-27 02:59:00,
2013-03-26 23:09:00,35.9,27.7,29.79,NNE,15,0.0,0.0,72,0.00,,,0.00,Wunderground v.1.15,2013-03-27 03:09:00,
2013-03-26 23:14:00,35.9,27.7,29.79,NNE,15,0.0,0.0,72,0.00,,,0.00,Wunderground v.1.15,2013-03-27 03:14:00,
2013-03-26 23:24:00,35.8,28.3,29.79,NNE,15,0.0,0.0,74,0.00,,,0.00,Wunderground v.1.15,2013-03-27 03:24:00,
2013-03-26 23:29:00,35.7,28.2,29.79,NNE,15,0.0,0.0,74,0.00,,,0.00,Wunderground v.1.15,2013-03-27 03:29:00,
2013-03-26 23:34:00,35.6,28.5,29.79,NNE,15,0.0,3.0,75,0.00,,,0.00,Wunderground v.1.15,2013-03-27 03:34:00,
2013-03-26 23:39:00,35.5,28.4,29.79,NNE,15,0.0,3.0,75,0.00,,,0.00,Wunderground v.1.15,2013-03-27 03:39:00,
2013-03-26 23:44:00,35.3,28.5,29.79,NNE,15,0.0,3.0,76,0.00,,,0.00,Wunderground v.1.15,2013-03-27 03:44:00,
2013-03-26 23:49:00,35.2,28.7,29.79,NNE,15,0.0,3.0,77,0.00,,,0.00,Wunderground v.1.15,2013-03-27 03:49:00,
2013-03-26 23:59:00,34.9,28.4,29.79,NNE,15,0.0,0.0,77,0.00,,,0.00,Wunderground v.1.15,2013-03-27 03:59:00,